Location: Bridalveil Moraine
(37.7171°N, 119.6568°W)
Time: 08:20:30
(UTC+00:00)

Cosmos 1844 Rocket - Pass Details

Date: 13 June 2024
Orbit: 825 x 843 km, 71.0° (Epoch: 18 July)

Event Time Altitude Azimuth Distance (km) Brightness Sun altitude
Exits shadow 12:01:09 - 249° (WSW) 2,696 4.7 -6.6°
Reaches altitude 10° 12:02:04 10° 255° (WSW) 2,429 4.5 -6.5°
Maximum altitude 12:06:16 22° 304° (NW) 1,754 4.2 -5.8°
Drops below altitude 10° 12:10:29 10° 354° (N) 2,433 5.5 -5.1°
Sets 12:13:31 0° 10° (N) 3,368 6.6 -4.6°
